Wind_Speed
15 14 14 15 20 22 19 16 17 15 12 14 16 19 20 21 22 21 21 20 20 19 18 17 16 15 14 14 13 12 11 11 12 12 12 10 9 9 8 7 6 6 6 5 4 4 5 5 5 5 6 6 6 6 6 6 6 6 6 5 4 4 5
19 14 14 17 20 22 21 18 18 16 13 14 17 20 21 22 22 21 21 21 21 20 20 19 18 16 15 14 14 13 12 11 11 12 11 11 10 9 9 8 7 6 6 6 6 6 6 6 6 6 6 6 6 6 6 6 6 7 7 7 6 5 5
22 15 14 16 18 21 21 20 19 17 15 14 16 20 22 22 23 23 23 23 23 22 21 20 18 18 17 16 14 13 12 11 11 11 11 11 11 10 9 8 8 7 7 7 7 7 7 7 6 6 6 7 7 6 6 5 6 6 7 7 8 8 7
22 16 15 16 18 21 22 21 20 18 16 14 15 20 23 24 25 25 25 24 24 22 21 20 19 19 18 16 15 14 13 12 11 11 12 12 11 9 8 8 8 8 8 8 8 8 8 8 8 8 8 7 7 7 7 6 6 7 7 8 8 9 9
25 18 16 16 19 21 22 21 21 19 15 13 15 19 24 26 26 26 25 24 23 22 22 21 20 19 17 16 15 14 13 12 11 11 11 11 10 9 9 9 9 9 9 9 9 9 10 10 10 10 10 9 9 9 9 8 8 8 9 9 9 9 10
29 21 14 15 17 18 19 21 20 18 16 14 16 19 23 26 27 27 26 24 22 21 21 20 18 16 16 15 14 13 12 11 10 10 10 10 10 10 10 10 10 9 9 10 10 10 11 11 12 12 13 13 12 11 11 11 10 10 10 11 11 10 10
29 21 14 15 17 16 17 20 20 18 18 17 19 20 22 26 27 27 25 23 22 20 19 17 15 14 14 14 14 13 12 11 10 10 10 10 10 11 11 11 11 11 11 11 11 11 12 12 12 13 13 14 14 14 13 13 13 12 12 12 13 12 12
25 18 15 17 18 17 18 19 19 19 19 19 18 18 20 25 26 25 24 22 20 18 16 15 15 14 15 15 14 14 13 13 12 12 12 12 11 11 11 12 12 12 12 12 13 12 12 13 13 14 14 14 14 15 15 15 15 15 14 14 14 14 14
23 18 18 19 20 20 19 19 20 21 20 18 15 14 18 22 23 22 21 19 17 16 15 15 15 15 15 15 15 14 14 13 12 12 12 12 12 12 12 12 12 12 12 13 13 13 13 13 13 14 14 14 14 15 15 16 17 16 16 16 16 15 15
24 22 23 22 22 21 21 21 22 21 19 16 13 12 14 17 19 19 18 17 16 15 16 16 15 15 15 15 15 14 13 12 12 12 12 12 13 13 13 13 12 12 13 13 14 14 14 14 13 13 14 15 16 15 15 16 17 17 17 17 16 16 16
24 23 24 24 23 23 24 24 23 20 17 14 13 12 12 13 15 15 15 15 15 16 16 16 15 15 15 15 15 14 13 13 13 13 13 13 13 13 13 13 13 13 13 14 14 14 14 14 14 13 13 14 16 16 17 17 17 18 17 17 17 17 16
23 22 25 26 24 23 25 26 23 20 16 14 14 13 12 12 12 13 14 14 15 15 15 15 15 15 15 15 15 14 14 14 13 13 14 14 14 14 14 13 13 14 14 14 14 14 14 14 13 13 13 14 15 16 17 17 17 17 18 18 18 17 17
22 22 24 24 21 21 24 25 24 21 19 17 16 15 14 13 12 12 13 13 13 14 13 13 13 14 14 14 14 14 14 14 14 14 14 15 15 15 15 14 15 15 15 14 14 14 14 14 14 14 14 14 14 15 16 17 17 17 17 18 18 17 17
23 23 24 22 19 21 24 26 24 22 21 20 18 17 16 14 13 14 14 12 12 12 11 11 11 11 11 12 12 12 13 14 14 15 15 16 16 16 16 16 16 16 16 15 14 14 14 14 15 14 15 15 15 15 15 15 15 16 17 17 18 18 18
25 25 25 23 17 17 21 24 22 20 21 20 17 17 17 15 15 15 15 13 11 10 10 10 10 9 9 9 9 10 11 13 14 15 16 17 17 17 18 18 18 17 16 16 15 15 15 14 15 15 15 16 16 16 15 15 15 15 16 17 17 17 18
27 26 26 24 18 13 16 20 20 19 19 18 17 17 18 17 15 15 16 15 13 11 11 11 10 9 9 9 9 10 11 12 13 14 16 16 17 18 19 20 19 18 17 17 17 16 15 14 14 14 15 16 16 16 15 15 15 15 16 16 16 16 17
27 27 26 25 21 16 14 17 19 20 20 19 19 20 20 18 16 16 16 16 15 14 14 13 12 11 10 10 10 11 11 11 13 14 15 16 17 18 20 20 19 18 17 17 16 16 16 16 14 13 14 15 16 16 15 15 15 15 15 15 15 15 15
24 25 25 26 25 21 17 18 19 21 21 21 22 22 20 18 17 17 16 16 16 16 16 16 14 13 13 12 11 11 10 10 12 13 14 15 16 17 19 20 19 19 18 16 16 17 17 17 16 14 13 13 15 16 15 14 14 14 14 14 14 14 13
21 23 24 26 27 25 22 21 21 22 23 23 24 23 21 20 19 18 16 16 16 17 17 16 16 15 14 13 12 12 11 11 11 12 13 14 15 16 18 19 18 18 17 17 17 16 16 17 17 16 13 12 13 15 15 14 13 13 14 14 13 13 12
21 24 26 27 28 27 25 23 24 24 24 25 25 24 23 22 21 20 19 19 19 18 17 16 16 15 15 15 14 14 14 13 12 12 12 13 14 15 16 16 17 17 18 18 17 15 14 16 17 16 14 11 12 13 15 13 12 13 13 13 13 13 12
21 23 24 25 25 25 25 25 25 25 25 25 25 24 24 23 22 22 22 21 20 19 18 17 17 16 16 16 16 17 17 16 15 14 14 14 15 16 16 16 17 17 18 18 17 16 15 16 16 15 14 13 11 11 13 13 12 12 12 13 13 13 12
22 22 21 21 21 22 22 23 22 21 22 23 24 24 24 23 23 23 22 21 21 21 20 20 19 18 18 18 18 19 20 20 19 18 17 16 16 16 18 19 19 20 20 20 19 17 17 16 15 14 14 14 12 10 12 13 12 12 12 12 13 13 13
22 23 22 21 22 20 19 20 18 17 19 22 23 24 24 24 23 22 22 22 22 22 22 21 20 20 20 21 21 22 22 23 23 22 20 19 17 17 18 20 21 22 23 23 21 19 17 16 15 14 14 13 12 10 11 12 12 11 12 13 14 15 15
24 25 25 23 21 19 16 16 16 16 17 19 21 23 24 23 23 22 22 21 22 23 24 23 23 23 23 24 24 25 25 25 25 24 23 22 20 19 19 19 19 21 23 23 22 20 18 16 15 14 13 13 12 11 11 12 12 12 13 14 16 17 18
28 28 27 24 21 18 15 14 15 16 17 17 19 21 23 23 24 23 23 22 22 23 24 24 25 26 26 26 27 27 27 27 26 26 25 25 23 22 20 19 18 19 20 22 21 19 18 16 14 13 13 13 12 11 11 11 12 13 14 16 17 19 20
32 31 29 25 21 18 16 14 15 16 17 19 20 22 23 23 24 25 26 26 25 25 24 25 27 29 29 28 28 28 28 28 27 27 26 27 27 25 22 20 19 18 19 19 19 18 17 14 13 13 13 12 12 11 11 12 13 15 16 18 20 22 23
34 34 31 26 23 20 18 16 16 17 17 17 19 21 21 21 22 24 25 27 27 26 26 28 30 31 31 30 29 29 29 29 29 28 28 28 29 27 24 22 21 20 19 18 19 18 16 14 13 12 12 12 12 12 12 12 14 16 18 20 22 24 26
36 35 32 29 27 24 21 19 20 19 18 17 18 19 19 19 19 21 22 24 25 26 27 29 29 30 30 30 30 30 31 31 30 30 29 30 31 30 27 25 23 21 20 19 18 18 17 16 14 13 12 13 13 13 14 14 16 18 20 22 24 26 27
37 37 35 34 32 29 25 23 24 24 22 20 19 19 20 19 19 20 20 21 22 24 25 25 25 25 26 27 28 30 31 32 32 32 31 32 32 32 30 28 25 23 23 21 19 18 18 17 16 15 15 15 15 15 16 17 19 22 23 25 26 26 27
37 38 38 38 36 33 29 27 27 26 25 24 23 22 22 21 21 21 21 21 21 22 23 22 22 23 23 24 26 28 29 30 31 31 32 33 34 33 31 29 27 25 25 25 23 21 20 19 18 18 17 17 18 19 20 22 24 26 26 26 27 27 28
37 38 39 40 39 38 34 31 29 28 27 26 26 25 24 24 24 23 22 22 22 22 22 21 22 22 23 23 23 24 25 26 27 29 32 34 34 33 32 31 28 26 27 27 26 24 23 22 21 21 20 21 22 22 24 26 28 28 27 27 28 29 30
37 38 40 41 42 40 38 36 33 30 29 28 28 27 27 27 27 26 25 24 24 24 23 23 23 22 23 23 23 23 24 24 25 27 29 31 32 32 33 32 30 27 28 29 29 27 26 25 24 24 24 24 24 25 27 29 29 28 27 28 29 30 32
38 39 39 41 43 43 41 39 37 33 31 30 29 29 29 28 28 27 26 26 26 26 25 25 24 24 24 24 24 25 25 25 25 26 27 28 29 31 32 32 31 29 30 30 31 30 29 28 27 27 26 26 27 28 30 30 29 29 30 30 31 32 33
40 41 41 41 43 44 43 41 39 36 33 31 31 30 29 29 29 27 27 27 28 28 27 27 26 26 26 26 26 25 26 26 26 26 27 27 28 29 30 31 31 31 31 32 32 32 32 31 30 29 29 29 29 30 31 31 31 32 32 33 33 34 35
42 43 43 42 43 44 44 43 41 39 36 34 32 32 31 30 29 28 27 28 29 29 28 28 28 27 28 28 27 26 26 27 27 27 27 28 28 28 30 31 31 31 32 34 35 35 34 34 33 32 31 30 31 32 32 33 34 35 35 35 36 36 37
46 45 44 44 43 44 44 44 43 41 38 36 35 34 33 32 31 30 29 29 30 30 30 30 30 29 29 29 28 28 27 27 27 27 27 28 28 29 31 31 32 32 34 35 35 36 36 35 34 33 32 32 33 34 35 35 36 36 37 37 38 39 40
47 47 46 45 44 44 44 45 44 43 41 39 38 37 36 35 34 33 32 32 32 32 33 33 32 31 31 30 29 29 28 28 27 27 27 28 29 30 31 31 32 33 34 35 35 36 36 36 35 34 34 35 35 36 36 37 37 37 38 40 41 43 44
46 46 47 46 45 44 44 45 45 44 43 41 40 39 38 38 37 36 36 35 34 35 35 35 35 34 33 32 31 30 30 30 29 28 28 29 30 31 32 32 33 34 35 36 36 36 37 37 36 36 36 37 37 37 38 38 39 39 41 42 44 45 47
Wind_Direction
223 220 218 230 245 249 249 250 255 254 254 260 249 233 227 222 220 218 214 214 212 207 201 200 203 206 210 214 214 212 207 205 209 215 215 213 212 213 215 215 215 220 232 244 257 269 277 283 287 293 298 306 319 332 346 2 18 26 20 4 345 329 328
242 233 223 227 237 246 249 245 245 247 244 249 248 238 231 223 217 215 212 211 210 208 203 200 201 203 206 213 214 211 207 205 209 217 222 222 221 221 222 224 226 225 234 247 260 270 276 281 284 285 289 295 305 316 330 347 1 11 15 9 358 339 318
247 233 219 227 239 245 244 239 239 242 239 241 245 242 236 226 219 214 211 209 208 207 206 202 202 204 206 210 212 211 208 205 207 215 225 229 227 226 225 227 231 231 234 241 250 259 264 271 276 277 278 284 291 299 310 327 338 347 357 0 359 352 334
244 224 215 227 236 238 236 232 234 236 232 235 242 242 236 227 221 217 212 210 208 207 206 205 204 206 208 210 211 211 209 207 208 213 223 232 233 232 231 230 230 231 231 231 234 241 249 256 263 266 269 273 278 284 293 304 312 321 329 337 344 348 343
246 236 227 231 232 232 229 226 229 230 228 234 240 240 235 228 223 219 216 213 210 209 209 209 207 207 209 212 213 211 210 210 210 213 221 231 236 239 242 239 233 230 229 229 230 233 239 247 254 259 262 264 268 274 281 289 294 299 305 312 321 329 335
244 240 231 231 232 229 224 221 223 227 232 239 245 244 236 229 225 221 218 215 212 213 214 214 213 211 212 214 215 214 213 212 212 214 217 222 228 235 243 246 244 241 239 238 240 240 241 245 249 254 260 263 266 268 272 279 284 286 289 292 299 307 315
239 237 222 223 229 222 217 218 218 223 234 240 245 248 240 230 225 222 219 216 214 214 216 216 214 212 212 213 214 214 213 213 213 213 213 213 217 223 232 241 245 248 250 250 251 252 252 253 254 255 259 264 267 269 271 274 277 279 279 280 284 291 297
236 234 216 215 225 219 212 214 216 221 231 237 243 249 243 233 226 223 220 217 216 215 214 214 211 209 210 210 212 213 212 213 213 212 211 211 213 218 223 230 238 246 252 256 259 261 261 263 265 265 264 265 267 271 272 273 274 276 275 275 277 280 285
233 227 215 214 221 222 214 212 216 222 227 232 236 243 243 235 227 223 219 216 214 211 209 210 209 208 210 211 214 217 219 218 218 218 217 216 218 221 225 230 237 245 252 257 262 266 267 267 268 271 273 273 270 269 270 271 272 274 275 275 276 277 278
229 221 217 216 217 219 218 214 214 220 225 225 226 237 246 239 229 223 219 214 211 208 207 209 210 211 213 216 219 222 223 224 223 223 224 225 227 229 232 237 243 251 256 261 266 269 271 272 272 273 275 277 276 273 271 271 272 274 276 276 277 277 276
234 225 219 220 218 218 220 217 214 217 222 221 221 234 248 243 230 220 215 213 211 210 210 210 214 217 219 222 226 226 226 226 225 225 226 229 232 236 241 246 252 258 262 267 271 273 274 276 276 275 273 274 277 278 277 274 273 273 275 275 277 278 278
237 229 224 223 222 221 220 216 211 210 214 217 220 229 239 237 225 215 211 212 214 214 214 214 216 219 222 226 228 229 229 229 229 229 230 233 237 241 246 252 257 262 265 268 271 274 275 275 273 273 273 273 276 278 279 277 275 273 273 274 276 277 278
236 232 232 227 220 220 219 213 207 205 206 208 211 218 226 226 220 218 215 214 217 219 218 218 219 221 224 227 228 229 230 231 232 233 235 237 241 246 251 256 261 264 267 267 268 271 272 270 268 268 271 275 278 278 277 277 276 273 272 272 273 275 277
232 233 240 238 222 214 217 214 208 205 203 203 206 211 217 218 215 218 220 219 220 221 222 223 222 224 226 228 229 231 231 233 234 236 238 241 244 249 254 259 262 264 265 266 266 267 265 262 263 266 271 276 279 280 279 278 275 272 270 270 271 273 275
227 231 240 247 235 213 213 217 215 209 205 204 207 212 215 213 209 213 220 224 225 224 226 229 229 232 238 240 239 239 239 240 240 240 243 245 248 251 255 258 260 262 262 263 263 264 262 258 259 265 273 277 279 281 282 280 276 272 270 270 272 274 275
221 229 239 248 247 222 210 216 217 214 211 211 216 220 218 211 205 207 215 222 226 225 227 232 235 239 243 247 249 250 250 251 252 250 250 250 249 249 251 254 257 260 260 259 261 264 265 261 259 264 271 275 277 279 281 281 279 276 275 275 277 279 279
223 229 237 244 248 242 222 215 214 216 219 220 223 227 224 216 212 211 211 215 220 223 225 228 230 229 229 233 243 250 253 255 257 256 254 252 249 247 247 248 252 256 257 257 260 265 267 265 263 264 266 271 274 276 279 280 279 279 280 280 280 280 280
230 233 239 243 247 249 241 228 220 219 222 226 228 230 229 226 225 223 217 217 219 222 224 224 223 225 228 231 238 247 254 259 261 261 257 252 248 244 243 244 247 252 257 259 260 261 263 265 267 266 265 268 273 275 276 277 278 280 280 281 281 281 281
226 228 237 242 244 245 242 236 229 222 222 226 230 234 235 234 234 234 232 230 229 227 227 226 226 230 237 243 248 252 257 262 269 272 267 259 250 244 243 245 248 252 256 258 258 259 260 263 266 266 263 261 267 271 273 274 278 279 278 280 281 281 282
224 220 227 233 236 239 240 239 236 230 225 225 227 231 234 234 235 236 237 238 237 235 235 235 235 237 243 251 257 261 264 268 271 274 274 270 262 254 250 250 250 251 252 255 257 258 258 258 260 263 262 257 260 267 272 276 279 277 277 280 282 282 283
236 231 233 236 239 243 245 243 242 240 235 231 228 228 230 231 232 234 236 239 242 243 244 244 245 246 249 254 260 264 269 272 272 271 272 273 269 264 259 255 252 250 250 251 253 252 252 253 257 263 264 260 258 262 268 275 278 277 277 280 283 287 289
241 244 244 242 241 243 245 245 246 247 244 239 235 232 232 233 234 235 237 239 242 245 247 246 247 250 253 257 261 265 269 271 272 272 271 271 271 268 264 260 257 254 251 250 249 249 251 254 257 261 263 264 264 264 268 273 277 279 282 283 286 290 291
240 247 248 244 239 237 237 239 242 245 245 242 239 237 236 236 237 237 239 240 241 244 247 248 250 251 253 256 260 264 266 267 269 271 272 271 271 272 270 266 261 258 255 254 252 251 252 256 257 260 264 269 272 272 270 272 276 280 284 286 287 288 287
237 244 245 243 242 238 233 232 233 235 239 242 242 241 240 240 241 239 240 241 242 244 246 248 251 252 254 255 257 260 262 263 265 267 269 271 273 278 280 276 268 262 259 258 256 253 251 252 255 260 267 273 276 275 273 276 280 283 284 283 282 282 283
232 238 240 239 238 238 235 232 229 225 226 229 234 237 238 239 241 241 242 243 243 243 244 247 250 252 253 253 253 254 256 258 260 261 264 267 271 277 281 276 267 264 263 262 260 255 250 247 251 260 269 274 276 276 276 278 281 282 279 274 271 271 273
227 232 236 235 232 231 231 232 230 224 218 216 220 226 228 230 233 237 241 243 243 243 244 246 248 250 250 251 250 250 251 253 255 256 258 262 265 270 274 270 263 263 266 267 264 257 249 245 247 258 267 270 271 273 274 276 278 277 274 270 268 269 269
225 228 232 231 229 228 229 231 232 229 222 215 217 222 223 223 225 229 234 237 239 242 244 245 246 247 248 248 248 248 249 249 250 251 252 255 259 263 267 268 264 261 264 267 265 259 250 243 241 249 258 261 262 263 265 268 269 270 270 269 269 270 270
225 227 230 229 228 228 230 231 232 231 227 220 218 220 221 219 219 221 224 228 232 236 239 240 241 242 243 243 243 244 245 245 246 247 248 250 254 258 262 265 264 260 260 263 262 257 249 240 234 236 244 251 255 258 261 263 263 263 263 264 265 267 270
224 226 228 230 230 230 230 231 231 230 229 225 221 219 219 216 214 214 216 219 223 228 232 234 236 238 240 240 239 239 240 240 241 243 244 246 249 253 257 261 262 259 257 258 257 253 246 240 235 234 236 241 247 252 256 258 258 259 260 261 264 268 272
225 226 228 230 232 233 234 234 233 230 229 227 224 221 219 218 216 215 216 219 223 228 232 234 235 236 237 238 238 239 239 239 239 239 240 243 247 250 253 257 260 259 256 255 255 253 249 246 244 241 239 240 242 245 248 251 253 256 259 263 268 272 276
223 226 228 231 234 237 238 237 235 231 228 228 227 225 223 222 221 221 222 225 229 233 236 236 236 236 237 239 240 242 243 243 242 239 238 241 245 247 249 253 257 257 255 254 253 253 253 250 249 247 246 246 246 247 249 252 254 257 260 265 269 274 278
221 224 227 230 234 237 239 240 238 234 230 228 228 228 227 227 227 227 228 230 232 234 235 235 235 236 239 240 241 242 244 244 244 242 241 242 244 245 246 250 253 254 254 252 252 253 253 251 251 251 251 252 252 252 253 256 259 262 265 267 270 274 278
221 221 224 228 232 235 238 239 240 238 234 231 229 229 229 230 231 231 231 231 232 234 235 235 235 235 236 238 239 240 241 242 243 244 243 243 243 244 245 248 250 251 252 251 252 253 253 252 252 253 253 253 254 255 258 262 267 270 271 272 274 276 279
221 219 221 226 229 233 235 237 239 240 238 236 233 231 231 232 234 235 234 233 234 236 237 238 238 237 237 238 238 238 239 241 243 245 245 245 243 243 244 246 248 249 250 251 252 252 252 252 253 253 253 255 256 258 262 267 271 272 273 274 276 279 281
221 219 221 224 227 230 232 234 236 239 240 239 239 237 236 236 237 238 238 238 239 240 241 242 242 241 240 241 241 240 240 241 242 244 245 245 243 242 243 244 246 247 248 249 251 251 251 253 254 254 255 256 257 260 262 266 269 272 274 276 278 281 283
225 222 222 223 225 227 230 233 235 236 238 240 241 241 240 240 240 240 240 240 241 243 243 244 244 243 242 242 243 243 242 241 242 243 244 244 243 242 242 243 245 246 246 248 250 252 254 255 257 257 257 257 258 261 263 266 270 272 275 277 280 282 284
228 225 223 224 225 226 228 231 234 236 237 239 240 241 242 242 241 241 240 241 242 243 244 245 245 245 244 244 244 245 245 244 244 244 244 244 243 242 243 244 246 247 248 250 253 254 255 257 257 257 258 259 261 264 267 270 272 274 277 279 281 283 285
229 227 225 225 226 227 228 230 232 235 236 238 239 241 242 242 242 242 242 242 243 244 245 246 246 246 246 246 245 246 247 247 246 246 245 244 243 243 244 244 245 247 249 252 253 254 254 255 256 257 259 262 265 268 270 273 274 276 278 280 281 282 284
Height
5884 5887 5890 5892 5893 5892 5893 5894 5895 5895 5896 5898 5900 5902 5904 5906 5907 5909 5911 5913 5915 5917 5918 5920 5921 5923 5925 5928 5930 5932 5935 5937 5939 5940 5942 5943 5945 5947 5948 5949 5951 5952 5952 5953 5954 5955 5956 5956 5956 5957 5957 5957 5957 5958 5958 5957 5957 5957 5956 5956 5955 5955 5954
5880 5884 5887 5889 5891 5891 5892 5893 5893 5894 5896 5897 5899 5901 5903 5905 5906 5908 5909 5911 5913 5915 5916 5918 5919 5921 5923 5926 5928 5931 5933 5936 5938 5939 5941 5943 5944 5946 5947 5949 5950 5951 5952 5953 5954 5955 5955 5955 5956 5956 5957 5957 5957 5957 5957 5957 5957 5957 5957 5956 5955 5955 5954
5878 5882 5885 5887 5889 5890 5891 5892 5892 5893 5895 5896 5898 5900 5902 5904 5905 5906 5908 5909 5911 5913 5915 5916 5918 5920 5922 5924 5927 5930 5932 5935 5937 5938 5940 5941 5943 5945 5946 5948 5949 5950 5951 5952 5953 5954 5954 5955 5955 5955 5956 5956 5956 5956 5957 5957 5957 5956 5956 5956 5956 5955 5954
5875 5879 5883 5885 5887 5888 5889 5890 5891 5892 5893 5894 5896 5899 5900 5902 5904 5905 5906 5907 5909 5911 5913 5915 5916 5918 5920 5923 5925 5928 5931 5933 5935 5937 5939 5940 5942 5944 5945 5947 5948 5949 5950 5951 5952 5953 5953 5954 5954 5954 5955 5955 5955 5956 5956 5956 5956 5956 5956 5956 5956 5955 5955
5871 5876 5880 5882 5884 5885 5886 5888 5889 5891 5892 5893 5894 5897 5898 5901 5902 5904 5905 5906 5908 5910 5911 5912 5914 5916 5919 5922 5924 5927 5929 5932 5934 5936 5937 5939 5941 5942 5944 5945 5946 5947 5949 5950 5951 5952 5952 5953 5953 5953 5953 5954 5954 5955 5955 5955 5955 5955 5955 5955 5955 5955 5955
5867 5873 5877 5879 5881 5882 5885 5886 5888 5889 5890 5891 5893 5895 5897 5899 5901 5903 5904 5905 5907 5909 5910 5912 5914 5916 5918 5921 5923 5925 5928 5930 5933 5934 5936 5938 5939 5941 5942 5943 5944 5946 5947 5948 5949 5950 5951 5951 5952 5952 5952 5952 5953 5954 5954 5954 5954 5954 5954 5954 5954 5954 5954
5864 5870 5874 5876 5877 5880 5882 5884 5885 5886 5887 5889 5890 5893 5896 5898 5900 5902 5903 5904 5906 5907 5909 5911 5913 5915 5917 5919 5922 5924 5927 5929 5931 5933 5934 5936 5938 5939 5940 5941 5943 5944 5945 5946 5947 5948 5949 5949 5950 5950 5951 5951 5951 5952 5952 5952 5952 5953 5953 5953 5953 5953 5953
5862 5868 5872 5874 5875 5877 5879 5881 5883 5884 5885 5887 5889 5892 5895 5897 5899 5901 5902 5904 5905 5907 5909 5910 5912 5913 5915 5918 5920 5923 5925 5927 5929 5931 5933 5934 5936 5937 5939 5940 5941 5942 5943 5944 5945 5946 5947 5947 5948 5948 5949 5950 5950 5950 5950 5950 5950 5951 5951 5951 5951 5951 5951
5860 5866 5869 5872 5873 5875 5877 5879 5880 5882 5883 5886 5889 5891 5894 5896 5898 5900 5901 5903 5904 5906 5907 5908 5910 5912 5914 5917 5919 5921 5923 5925 5927 5929 5931 5933 5934 5935 5937 5938 5939 5940 5942 5942 5943 5944 5945 5946 5946 5946 5947 5948 5948 5948 5948 5948 5948 5948 5949 5949 5949 5950 5950
5858 5862 5866 5869 5871 5873 5874 5876 5877 5879 5882 5885 5888 5890 5892 5895 5897 5898 5900 5901 5903 5904 5905 5907 5909 5911 5913 5915 5918 5920 5922 5924 5926 5928 5929 5931 5932 5933 5935 5936 5938 5939 5940 5941 5941 5942 5942 5943 5944 5945 5945 5945 5945 5946 5946 5946 5946 5946 5947 5947 5947 5948 5948
5855 5860 5863 5866 5869 5871 5872 5873 5875 5878 5881 5883 5886 5888 5891 5893 5895 5896 5897 5899 5901 5902 5904 5906 5908 5910 5912 5914 5916 5919 5921 5922 5924 5926 5928 5929 5930 5932 5933 5935 5936 5937 5938 5939 5939 5940 5940 5941 5942 5942 5943 5943 5943 5943 5944 5944 5944 5944 5944 5945 5945 5945 5946
5853 5856 5859 5863 5866 5868 5869 5871 5874 5877 5879 5882 5885 5887 5889 5891 5893 5894 5895 5896 5898 5900 5902 5904 5906 5908 5911 5913 5915 5917 5919 5921 5922 5924 5925 5927 5928 5930 5931 5933 5934 5935 5936 5936 5937 5937 5938 5938 5939 5940 5940 5941 5941 5941 5941 5941 5942 5942 5942 5942 5942 5943 5943
5850 5853 5855 5859 5863 5865 5866 5869 5872 5875 5877 5880 5883 5885 5887 5889 5891 5892 5893 5894 5896 5898 5901 5903 5905 5907 5909 5911 5913 5915 5917 5919 5920 5922 5923 5925 5926 5928 5929 5931 5932 5933 5934 5934 5935 5935 5936 5936 5937 5937 5938 5938 5939 5939 5939 5939 5939 5940 5940 5940 5940 5940 5941
5847 5849 5851 5855 5859 5862 5863 5866 5870 5873 5875 5877 5880 5882 5885 5887 5889 5890 5891 5893 5895 5897 5899 5901 5903 5905 5907 5910 5912 5914 5915 5917 5918 5920 5921 5923 5924 5926 5927 5929 5930 5931 5931 5932 5933 5934 5934 5935 5935 5935 5936 5936 5936 5936 5937 5937 5937 5938 5938 5938 5938 5938 5938
5844 5846 5848 5851 5856 5860 5862 5864 5867 5870 5872 5875 5877 5880 5883 5885 5888 5889 5890 5892 5894 5896 5898 5900 5902 5904 5906 5908 5910 5912 5913 5915 5916 5918 5919 5920 5922 5924 5925 5926 5927 5928 5929 5930 5931 5932 5932 5933 5933 5934 5934 5934 5934 5934 5934 5935 5935 5935 5935 5935 5935 5936 5936
5842 5844 5846 5848 5853 5857 5860 5862 5865 5867 5870 5872 5875 5877 5881 5884 5886 5888 5890 5891 5893 5895 5897 5899 5901 5903 5905 5907 5909 5910 5912 5913 5914 5916 5917 5918 5920 5921 5922 5923 5924 5926 5927 5928 5928 5929 5930 5931 5932 5932 5932 5932 5932 5932 5932 5933 5933 5933 5933 5933 5933 5933 5934
5841 5842 5844 5847 5850 5853 5857 5860 5862 5865 5867 5870 5873 5875 5878 5881 5884 5886 5888 5890 5893 5895 5897 5899 5901 5903 5905 5906 5907 5909 5910 5911 5913 5914 5915 5916 5917 5918 5919 5920 5921 5923 5924 5925 5926 5927 5927 5928 5929 5930 5930 5930 5930 5930 5930 5930 5930 5931 5931 5931 5931 5932 5932
5839 5841 5843 5845 5847 5851 5854 5857 5860 5863 5866 5868 5871 5873 5876 5879 5881 5884 5886 5889 5892 5894 5896 5898 5900 5902 5903 5905 5906 5907 5909 5910 5911 5912 5913 5914 5914 5915 5916 5917 5919 5920 5921 5923 5924 5924 5925 5926 5927 5928 5928 5928 5928 5928 5928 5928 5928 5929 5929 5929 5929 5930 5930
5837 5840 5842 5843 5845 5848 5851 5854 5857 5861 5864 5866 5868 5871 5873 5876 5878 5881 5884 5887 5889 5892 5894 5896 5899 5900 5902 5903 5905 5906 5907 5908 5909 5910 5911 5912 5912 5913 5914 5915 5916 5918 5919 5920 5921 5922 5923 5924 5924 5925 5926 5926 5926 5926 5926 5926 5927 5927 5927 5928 5928 5928 5928
5835 5837 5839 5841 5843 5845 5848 5850 5853 5856 5860 5863 5866 5868 5870 5873 5875 5878 5881 5883 5886 5889 5891 5894 5896 5898 5900 5901 5902 5904 5905 5906 5907 5908 5909 5910 5911 5911 5912 5913 5914 5915 5916 5917 5918 5920 5921 5921 5921 5922 5923 5924 5924 5924 5924 5924 5925 5925 5925 5926 5926 5926 5927
5832 5834 5836 5838 5841 5843 5845 5847 5849 5852 5855 5859 5862 5865 5867 5869 5872 5874 5877 5880 5883 5886 5888 5891 5893 5895 5897 5899 5900 5901 5902 5904 5905 5906 5907 5908 5909 5909 5910 5911 5911 5912 5913 5914 5915 5916 5917 5918 5919 5920 5921 5921 5922 5922 5922 5922 5923 5923 5924 5924 5924 5924 5925
5830 5831 5833 5836 5838 5840 5842 5844 5847 5849 5852 5855 5858 5861 5863 5866 5868 5871 5874 5877 5880 5883 5885 5888 5890 5892 5894 5896 5897 5899 5900 5901 5902 5903 5904 5905 5906 5907 5907 5908 5908 5909 5910 5910 5911 5913 5914 5915 5916 5917 5918 5918 5919 5920 5920 5920 5921 5921 5921 5921 5921 5922 5923
5827 5828 5830 5832 5834 5837 5840 5842 5844 5847 5850 5852 5855 5858 5860 5863 5865 5868 5871 5874 5877 5880 5882 5884 5887 5889 5891 5893 5895 5896 5897 5898 5899 5900 5901 5902 5903 5904 5904 5904 5905 5905 5906 5907 5908 5909 5911 5912 5913 5914 5915 5916 5916 5917 5918 5918 5918 5919 5919 5919 5919 5919 5920
5825 5825 5827 5829 5832 5835 5837 5840 5842 5845 5847 5850 5852 5855 5857 5860 5863 5866 5868 5871 5874 5877 5879 5881 5884 5886 5888 5890 5892 5893 5894 5895 5896 5897 5898 5899 5900 5901 5901 5901 5902 5902 5902 5903 5904 5906 5907 5908 5909 5911 5912 5913 5913 5914 5915 5915 5916 5917 5917 5917 5916 5916 5916
5821 5822 5824 5827 5830 5833 5835 5838 5840 5842 5844 5847 5849 5851 5854 5857 5860 5862 5865 5868 5870 5873 5875 5878 5880 5882 5884 5886 5888 5889 5891 5892 5893 5895 5895 5896 5897 5898 5898 5899 5899 5899 5899 5900 5901 5903 5904 5905 5906 5907 5909 5910 5910 5911 5912 5913 5914 5914 5915 5915 5914 5914 5914
5818 5820 5822 5825 5828 5831 5833 5835 5837 5839 5841 5843 5846 5848 5850 5853 5856 5859 5861 5864 5866 5868 5871 5874 5876 5877 5879 5880 5883 5885 5887 5889 5890 5892 5893 5893 5894 5895 5896 5896 5896 5897 5897 5897 5898 5899 5901 5902 5903 5904 5905 5907 5907 5908 5910 5910 5911 5911 5912 5912 5912 5912 5912
5816 5818 5821 5824 5827 5829 5831 5833 5835 5836 5838 5841 5843 5845 5847 5849 5852 5855 5858 5859 5861 5864 5867 5869 5871 5872 5874 5876 5878 5881 5883 5885 5886 5888 5889 5890 5890 5891 5892 5893 5894 5894 5895 5895 5896 5896 5898 5899 5900 5901 5902 5903 5904 5906 5907 5908 5908 5908 5908 5908 5908 5908 5909
5815 5818 5820 5822 5825 5827 5829 5831 5833 5834 5836 5839 5841 5843 5845 5847 5849 5852 5854 5856 5859 5861 5863 5864 5866 5867 5869 5871 5873 5876 5878 5880 5882 5884 5885 5886 5887 5888 5889 5890 5891 5892 5892 5893 5893 5894 5895 5896 5897 5898 5899 5900 5901 5902 5903 5904 5905 5905 5905 5905 5905 5905 5905
5813 5816 5818 5820 5822 5824 5827 5829 5830 5832 5834 5836 5839 5840 5842 5844 5847 5849 5851 5853 5856 5857 5859 5860 5862 5864 5866 5867 5869 5871 5873 5875 5877 5879 5881 5882 5883 5884 5885 5887 5888 5889 5889 5890 5891 5891 5892 5893 5894 5895 5896 5897 5898 5899 5900 5901 5901 5901 5901 5901 5901 5902 5902
5809 5812 5814 5816 5818 5821 5823 5825 5827 5830 5832 5834 5836 5838 5840 5842 5844 5846 5849 5851 5853 5854 5856 5858 5860 5861 5863 5864 5866 5867 5869 5870 5872 5874 5876 5878 5878 5880 5882 5883 5884 5886 5886 5887 5888 5889 5889 5890 5891 5891 5893 5894 5895 5896 5896 5897 5896 5896 5897 5898 5898 5898 5898
5805 5807 5810 5812 5814 5816 5819 5821 5824 5827 5829 5831 5833 5835 5838 5840 5842 5844 5846 5848 5850 5851 5853 5855 5856 5858 5860 5861 5862 5864 5865 5866 5868 5870 5871 5873 5874 5876 5878 5879 5881 5882 5883 5883 5884 5885 5886 5887 5887 5888 5889 5890 5891 5891 5892 5891 5891 5892 5894 5895 5895 5894 5894
5801 5804 5806 5808 5810 5812 5815 5817 5820 5823 5826 5828 5830 5832 5835 5837 5839 5841 5843 5845 5846 5848 5849 5851 5853 5855 5856 5858 5859 5860 5861 5863 5864 5865 5867 5868 5870 5871 5873 5875 5877 5878 5879 5879 5881 5881 5882 5883 5884 5884 5885 5885 5886 5886 5886 5886 5887 5889 5890 5890 5890 5889 5889
5798 5800 5802 5804 5806 5808 5811 5813 5816 5819 5822 5825 5827 5829 5832 5834 5835 5838 5840 5841 5843 5844 5845 5847 5849 5851 5852 5854 5855 5856 5858 5859 5860 5862 5863 5864 5865 5867 5869 5871 5872 5874 5875 5876 5877 5877 5878 5879 5879 5880 5881 5881 5882 5881 5881 5881 5883 5884 5884 5884 5884 5884 5883
5794 5796 5798 5800 5802 5804 5807 5809 5812 5815 5818 5821 5823 5826 5828 5830 5832 5834 5836 5838 5839 5840 5842 5844 5846 5847 5849 5850 5851 5852 5854 5855 5857 5858 5859 5860 5861 5863 5866 5867 5868 5869 5871 5872 5872 5873 5874 5874 5875 5875 5876 5877 5877 5877 5877 5877 5878 5878 5878 5878 5878 5878 5878
5789 5792 5794 5796 5798 5800 5803 5806 5808 5811 5814 5817 5819 5821 5824 5826 5828 5831 5833 5834 5835 5837 5839 5840 5842 5843 5845 5846 5847 5848 5850 5851 5853 5854 5855 5856 5858 5860 5862 5863 5864 5865 5866 5867 5867 5868 5869 5869 5870 5871 5872 5872 5872 5872 5872 5873 5873 5872 5872 5873 5872 5872 5872
5784 5787 5789 5792 5794 5797 5799 5802 5804 5807 5810 5813 5815 5817 5819 5822 5824 5827 5829 5830 5832 5833 5835 5836 5838 5839 5841 5842 5843 5844 5846 5847 5848 5850 5852 5853 5855 5856 5857 5858 5859 5860 5861 5862 5862 5863 5863 5864 5865 5866 5866 5867 5867 5867 5867 5867 5867 5867 5867 5867 5867 5866 5866
5779 5782 5785 5787 5790 5793 5795 5798 5800 5803 5806 5808 5810 5813 5815 5818 5820 5822 5824 5826 5828 5829 5830 5832 5833 5835 5837 5838 5839 5840 5841 5843 5844 5846 5848 5849 5851 5852 5852 5853 5855 5856 5856 5857 5858 5858 5859 5859 5860 5860 5861 5861 5861 5862 5862 5862 5862 5862 5861 5861 5860 5860 5860
5773 5777 5780 5783 5786 5789 5791 5794 5796 5799 5801 5804 5806 5808 5811 5813 5815 5818 5820 5822 5823 5825 5826 5828 5829 5831 5832 5834 5835 5836 5837 5838 5840 5842 5843 5844 5846 5847 5847 5849 5850 5851 5851 5852 5853 5853 5854 5854 5854 5855 5855 5856 5856 5856 5856 5856 5856 5856 5856 5855 5854 5854 5854